Marianna, FL

4:43 PM CST on December 02, 2016 (GMT -0600)
Marianna Municipal

Weather History for KMAI - July, 2013

Change the Weather History Date:

Monday, July 15, 2013

  Actual Average Record
Temperature  
Mean Temperature 81 °F 82 °F  
Max Temperature 89 °F 92 °F 99 °F (2000)
Min Temperature 73 °F 72 °F 68 °F (2001)
Degree Days  
Heating Degree Days 0    
Month to date heating degree days 0  
Since 1 June heating degree days 0  
Since 1 July heating degree days 0  
Cooling Degree Days 16    
Month to date cooling degree days 205  
Year to date cooling degree days 1090  
Since 1 June cooling degree days 654  
Growing Degree Days 31 (Base 50)    
Moisture  
Dew Point 72 °F    
Average Humidity 73    
Maximum Humidity 94    
Minimum Humidity 52    
Precipitation  
Precipitation 0.14 in 0.16 in 0.70 in (2004)
Month to date precipitation 6.31 2.69  
Year to date precipitation 31.31 30.48  
Sea Level Pressure  
Sea Level Pressure 30.13 in    
Wind  
Wind Speed 6 mph (ENE)    
Max Wind Speed 17 mph    
Max Gust Speed 25 mph    
Visibility 10 miles    
Events Rain , Thunderstorm    
T = Trace of Precipitation, MM = Missing Value Source: NWS Daily Summary

Daily Weather History Graph

Daily Weather History Graph

Search for Another Location

Airport or City:

Trip Planner

Search our weather history database for the weather conditions in past years. The results will help you decide how hot, cold, wet, or windy it might be!

Date:

Astronomy

Jul. 15, 2013 Rise Set
Actual Time 5:48 AM CDT 7:45 PM CDT
Civil Twilight 5:20 AM CDT 8:12 PM CDT
Nautical Twilight 4:48 AM CDT 8:45 PM CDT
Astronomical Twilight 4:13 AM CDT 9:19 PM CDT
Moon 12:33 PM CDT (7/15) No Moon Set
Length of Visible Light 14h 51m
Length of Day
13h 56m
Waxing Crescent, 45% of the Moon is Illuminated
Jul 15
Waxing Crescent
Jul 15
First Quarter
Jul 22
Full
Jul 29
Last Quarter
Aug 6
New

Hourly Weather History & Observations

Time (CDT) Temp. Heat Index Dew Point Humidity Pressure Visibility Wind Dir Wind Speed Gust Speed Precip Events Conditions
12:53 AM 75.0 °F - 73.0 °F 94% 30.09 in 10.0 mi East 4.6 mph - N/A   Clear
1:53 AM 73.9 °F - 72.0 °F 93% 30.09 in 10.0 mi East 3.5 mph - N/A   Clear
2:53 AM 73.9 °F - 72.0 °F 93% 30.09 in 10.0 mi East 4.6 mph - N/A   Clear
3:53 AM 73.0 °F - 71.1 °F 93% 30.09 in 10.0 mi East 6.9 mph - N/A   Clear
4:53 AM 73.0 °F - 71.1 °F 93% 30.10 in 10.0 mi East 6.9 mph - N/A   Scattered Clouds
5:05 AM 73.4 °F - 71.6 °F 94% 30.11 in 10.0 mi East 5.8 mph - N/A   Mostly Cloudy
5:53 AM 73.0 °F - 71.1 °F 93% 30.12 in 10.0 mi East 3.5 mph - N/A   Overcast
6:24 AM 73.4 °F - 71.6 °F 94% 30.14 in 10.0 mi East 4.6 mph - N/A   Scattered Clouds
6:42 AM 73.4 °F - 71.6 °F 94% 30.14 in 10.0 mi East 6.9 mph - N/A   Mostly Cloudy
6:51 AM 73.4 °F - 71.6 °F 94% 30.15 in 10.0 mi East 6.9 mph - N/A   Overcast
6:53 AM 73.0 °F - 71.1 °F 93% 30.14 in 10.0 mi East 6.9 mph - N/A   Overcast
7:28 AM 75.2 °F - 71.6 °F 89% 30.16 in 10.0 mi East 9.2 mph - N/A   Overcast
7:53 AM 75.0 °F - 72.0 °F 90% 30.16 in 10.0 mi East 5.8 mph - N/A   Overcast
8:17 AM 75.2 °F - 71.6 °F 89% 30.17 in 10.0 mi East 6.9 mph - N/A   Overcast
8:27 AM 75.2 °F - 71.6 °F 89% 30.17 in - East 8.1 mph - N/A   Overcast
8:34 AM 75.2 °F - 71.6 °F 89% 30.17 in - East 6.9 mph - N/A   Overcast
8:53 AM 77.0 °F - 72.0 °F 84% 30.17 in - East 9.2 mph - N/A   Overcast
9:53 AM 77.0 °F - 71.1 °F 82% 30.17 in 10.0 mi East 6.9 mph - N/A   Overcast
10:53 AM 80.1 °F 84.2 °F 73.0 °F 79% 30.17 in 10.0 mi ESE 8.1 mph - N/A   Mostly Cloudy
11:25 AM 82.4 °F 87.2 °F 71.6 °F 70% 30.17 in 10.0 mi East 10.4 mph - N/A   Mostly Cloudy
11:53 AM 82.9 °F 88.0 °F 72.0 °F 69% 30.16 in 10.0 mi East 11.5 mph - N/A   Mostly Cloudy
12:53 PM 86.0 °F 92.2 °F 72.0 °F 63% 30.14 in 10.0 mi ENE 10.4 mph - N/A   Scattered Clouds
1:53 PM 87.1 °F 93.6 °F 72.0 °F 61% 30.12 in 10.0 mi East 10.4 mph - N/A   Partly Cloudy
2:53 PM 89.1 °F 94.1 °F 70.0 °F 53% 30.09 in 10.0 mi East 8.1 mph - N/A   Partly Cloudy
3:53 PM 88.0 °F 92.9 °F 70.0 °F 55% 30.07 in 10.0 mi East 6.9 mph - N/A   Mostly Cloudy
4:34 PM 78.8 °F - 69.8 °F 74% 30.08 in 1.5 mi ENE 11.5 mph 25.3 mph 0.13 in Rain Heavy Rain
4:43 PM 78.8 °F - 71.6 °F 78% 30.08 in 3.0 mi SE 5.8 mph - 0.14 in Rain Light Rain
4:53 PM 79.0 °F - 73.0 °F 82% 30.07 in 10.0 mi East 4.6 mph - 0.14 in   Mostly Cloudy
5:03 PM 78.8 °F - 73.4 °F 83% 30.08 in 10.0 mi SE 3.5 mph - N/A Thunderstorm Partly Cloudy
5:38 PM 78.8 °F - 75.2 °F 89% 30.10 in 10.0 mi NNW 6.9 mph - N/A   Clear
5:53 PM 80.1 °F 85.1 °F 75.0 °F 85% 30.09 in 10.0 mi NNW 3.5 mph - N/A   Clear
6:53 PM 79.0 °F - 73.0 °F 82% 30.10 in 10.0 mi NNW 5.8 mph - N/A   Partly Cloudy
7:01 PM 78.8 °F - 73.4 °F 83% 30.11 in 10.0 mi NNW 3.5 mph - N/A Thunderstorm Partly Cloudy
7:16 PM 78.8 °F - 73.4 °F 83% 30.11 in 10.0 mi North 3.5 mph - N/A   Partly Cloudy
7:41 PM 77.0 °F - 71.6 °F 83% 30.12 in 10.0 mi NE 4.6 mph - N/A Thunderstorm Clear
7:53 PM 77.0 °F - 72.0 °F 84% 30.13 in 10.0 mi Calm Calm - N/A   Clear
8:53 PM 77.0 °F - 72.0 °F 84% 30.14 in 10.0 mi Calm Calm - N/A   Clear
9:53 PM 75.9 °F - 73.0 °F 91% 30.14 in 10.0 mi ENE 3.5 mph - N/A   Partly Cloudy
10:53 PM 75.9 °F - 73.0 °F 91% 30.15 in 10.0 mi NE 4.6 mph - 0.00 in   Scattered Clouds
11:53 PM 75.0 °F - 73.9 °F 96% 30.16 in 10.0 mi ENE 6.9 mph - N/A   Mostly Cloudy